Torna al catalogo

DMSP 5D-2 F11 DEB

AttivoPO
NORAD 35532·DEBRIS·🇺🇸 United States

Lanciato Nov 28, 1991 da Vandenberg Space Force Base

Loading…

Prossimi Passaggi (prossime 24 ore)

TLE

AggiornatoSource: Space-Track

Epoca: Sep 14, 2026, 06:18 UTC

1 35532U 91082CP  26257.26265364  .00012038  00000-0  23862-2 0  9991
2 35532  98.7029  61.1443 0061987 112.8407 247.9354 14.61178347680110

Traccia DMSP 5D-2 F11 DEB in tempo reale con AllMySat

Download on the App Store